TimePDT,TemperatureF,Dew PointF,Humidity,Sea Level PressureIn,VisibilityMPH,Wind Direction,Wind SpeedMPH,Gust SpeedMPH,PrecipitationIn,Events,Conditions,WindDirDegrees,DateUTC
12:35 AM,39.2,37.4,93,30.12,7.0,Calm,Calm,-,N/A,,Clear,0,2013-03-24 07:35:00
12:55 AM,41.0,37.4,87,30.12,7.0,Calm,Calm,-,N/A,,Clear,0,2013-03-24 07:55:00
1:15 AM,41.0,37.4,87,30.12,7.0,Calm,Calm,-,N/A,,Clear,0,2013-03-24 08:15:00
1:35 AM,39.2,37.4,93,30.11,6.0,Calm,Calm,-,N/A,,Clear,0,2013-03-24 08:35:00
1:55 AM,39.2,37.4,93,30.11,6.0,Calm,Calm,-,N/A,,Clear,0,2013-03-24 08:55:00
2:15 AM,39.2,37.4,93,30.11,6.0,Calm,Calm,-,N/A,,Clear,0,2013-03-24 09:15:00
2:35 AM,39.2,37.4,93,30.11,5.0,Calm,Calm,-,N/A,,Clear,0,2013-03-24 09:35:00
2:55 AM,39.2,37.4,93,30.11,5.0,Calm,Calm,-,N/A,,Clear,0,2013-03-24 09:55:00
3:15 AM,39.2,37.4,93,30.11,5.0,Calm,Calm,-,N/A,,Clear,0,2013-03-24 10:15:00
3:35 AM,39.2,37.4,93,30.10,5.0,Calm,Calm,-,N/A,,Clear,0,2013-03-24 10:35:00
3:55 AM,37.4,35.6,93,30.10,5.0,Calm,Calm,-,N/A,,Clear,0,2013-03-24 10:55:00
4:15 AM,39.2,37.4,93,30.10,5.0,Calm,Calm,-,N/A,,Clear,0,2013-03-24 11:15:00
4:35 AM,37.4,35.6,93,30.10,5.0,Calm,Calm,-,N/A,,Clear,0,2013-03-24 11:35:00
4:55 AM,37.4,37.4,100,30.10,5.0,Calm,Calm,-,N/A,,Clear,0,2013-03-24 11:55:00
5:15 AM,37.4,37.4,100,30.09,5.0,Calm,Calm,-,N/A,,Mostly Cloudy,0,2013-03-24 12:15:00
5:35 AM,39.2,37.4,93,30.09,5.0,Calm,Calm,-,N/A,,Partly Cloudy,0,2013-03-24 12:35:00
5:55 AM,39.2,37.4,93,30.10,5.0,Calm,Calm,-,N/A,,Scattered Clouds,0,2013-03-24 12:55:00
6:15 AM,37.4,37.4,100,30.11,5.0,Calm,Calm,-,N/A,,Partly Cloudy,0,2013-03-24 13:15:00
6:35 AM,37.4,37.4,100,30.11,4.0,Calm,Calm,-,N/A,,Mostly Cloudy,0,2013-03-24 13:35:00
6:55 AM,39.2,37.4,93,30.11,5.0,Calm,Calm,-,N/A,,Overcast,0,2013-03-24 13:55:00
7:15 AM,39.2,37.4,93,30.11,5.0,Calm,Calm,-,N/A,,Overcast,0,2013-03-24 14:15:00
7:35 AM,41.0,39.2,93,30.11,3.0,Calm,Calm,-,N/A,,Overcast,0,2013-03-24 14:35:00
7:55 AM,42.8,41.0,93,30.11,4.0,Calm,Calm,-,N/A,,Overcast,0,2013-03-24 14:55:00
8:15 AM,44.6,42.8,93,30.12,4.0,Calm,Calm,-,N/A,,Overcast,0,2013-03-24 15:15:00
8:35 AM,48.2,46.4,93,30.12,3.0,North,5.8,-,N/A,,Overcast,10,2013-03-24 15:35:00
8:55 AM,48.2,46.4,93,30.12,4.0,NNW,4.6,-,N/A,,Overcast,340,2013-03-24 15:55:00
9:15 AM,48.2,46.4,93,30.12,3.0,NNW,4.6,-,N/A,,Mostly Cloudy,340,2013-03-24 16:15:00
9:35 AM,50.0,46.4,87,30.13,4.0,North,8.1,-,N/A,,Overcast,350,2013-03-24 16:35:00
9:55 AM,50.0,44.6,82,30.13,4.0,North,6.9,-,N/A,,Haze,10,2013-03-24 16:55:00
10:15 AM,50.0,46.4,87,30.13,4.0,NNW,10.4,-,N/A,,Haze,340,2013-03-24 17:15:00
10:35 AM,51.8,46.4,82,30.13,5.0,NNW,11.5,-,N/A,,Haze,340,2013-03-24 17:35:00
10:55 AM,51.8,46.4,82,30.12,5.0,North,11.5,-,N/A,,Haze,350,2013-03-24 17:55:00
11:15 AM,51.8,46.4,82,30.12,4.0,NNW,10.4,-,N/A,,Haze,340,2013-03-24 18:15:00
11:35 AM,53.6,46.4,77,30.12,4.0,NW,11.5,-,N/A,,Haze,320,2013-03-24 18:35:00
11:55 AM,53.6,46.4,77,30.12,5.0,NNW,12.7,-,N/A,,Haze,340,2013-03-24 18:55:00
12:15 PM,53.6,46.4,77,30.12,5.0,North,11.5,-,N/A,,Haze,350,2013-03-24 19:15:00
12:35 PM,53.6,46.4,77,30.12,4.0,NNW,12.7,-,N/A,,Haze,330,2013-03-24 19:35:00
12:55 PM,53.6,46.4,77,30.12,5.0,NNW,13.8,-,N/A,,Haze,340,2013-03-24 19:55:00
1:15 PM,53.6,46.4,77,30.11,5.0,NNW,13.8,19.6,N/A,,Haze,330,2013-03-24 20:15:00
1:35 PM,53.6,46.4,77,30.10,5.0,NNW,10.4,19.6,N/A,,Haze,330,2013-03-24 20:35:00
1:55 PM,53.6,46.4,77,30.10,5.0,NNW,13.8,-,N/A,,Haze,330,2013-03-24 20:55:00
2:15 PM,53.6,46.4,77,30.09,5.0,NNW,12.7,-,N/A,,Haze,330,2013-03-24 21:15:00
2:35 PM,53.6,46.4,77,30.08,5.0,NNW,13.8,-,N/A,,Haze,330,2013-03-24 21:35:00
2:55 PM,51.8,46.4,82,30.08,5.0,NNW,13.8,-,N/A,,Haze,330,2013-03-24 21:55:00
3:15 PM,53.6,46.4,77,30.08,5.0,North,16.1,-,N/A,,Haze,350,2013-03-24 22:15:00
3:35 PM,53.6,46.4,77,30.07,5.0,NNW,16.1,20.7,N/A,,Haze,340,2013-03-24 22:35:00
4:15 PM,53.6,46.4,77,30.06,5.0,NNW,13.8,-,N/A,,Haze,330,2013-03-24 23:15:00
4:35 PM,51.8,46.4,82,30.05,5.0,NNW,12.7,-,N/A,,Haze,340,2013-03-24 23:35:00
4:55 PM,51.8,46.4,82,30.05,5.0,NNW,13.8,-,N/A,,Haze,340,2013-03-24 23:55:00
5:15 PM,51.8,46.4,82,30.04,5.0,NNW,12.7,-,N/A,,Haze,340,2013-03-25 00:15:00
5:35 PM,51.8,46.4,82,30.04,5.0,NNW,15.0,20.7,N/A,,Haze,330,2013-03-25 00:35:00
5:55 PM,50.0,46.4,87,30.04,5.0,NNW,13.8,-,N/A,,Haze,330,2013-03-25 00:55:00
6:15 PM,50.0,46.4,87,30.04,5.0,North,9.2,-,N/A,,Scattered Clouds,350,2013-03-25 01:15:00
6:35 PM,50.0,46.4,87,30.04,5.0,NNW,10.4,-,N/A,,Mostly Cloudy,340,2013-03-25 01:35:00
6:55 PM,50.0,46.4,87,30.04,5.0,North,9.2,-,N/A,,Overcast,360,2013-03-25 01:55:00
7:15 PM,48.2,44.6,87,30.04,5.0,North,9.2,-,N/A,,Mostly Cloudy,350,2013-03-25 02:15:00
7:35 PM,48.2,44.6,87,30.04,5.0,NNW,8.1,-,N/A,,Mostly Cloudy,340,2013-03-25 02:35:00
7:55 PM,48.2,46.4,93,30.04,6.0,North,8.1,-,N/A,,Overcast,360,2013-03-25 02:55:00
8:15 PM,48.2,44.6,87,30.04,6.0,North,5.8,-,N/A,,Mostly Cloudy,350,2013-03-25 03:15:00
8:35 PM,48.2,44.6,87,30.04,5.0,North,3.5,-,N/A,,Mostly Cloudy,350,2013-03-25 03:35:00
8:55 PM,46.4,44.6,93,30.04,5.0,NNE,3.5,-,N/A,,Scattered Clouds,30,2013-03-25 03:55:00
9:15 PM,46.4,42.8,87,30.05,5.0,NNE,3.5,-,N/A,,Mostly Cloudy,30,2013-03-25 04:15:00
9:35 PM,46.4,42.8,87,30.05,5.0,North,3.5,-,N/A,,Mostly Cloudy,10,2013-03-25 04:35:00
9:55 PM,46.4,44.6,93,30.05,5.0,NNE,4.6,-,N/A,,Mostly Cloudy,20,2013-03-25 04:55:00
10:15 PM,46.4,44.6,93,30.05,5.0,NE,4.6,-,N/A,,Mostly Cloudy,40,2013-03-25 05:15:00
10:35 PM,44.6,42.8,93,30.06,5.0,Calm,Calm,-,N/A,,Mostly Cloudy,0,2013-03-25 05:35:00
10:55 PM,44.6,42.8,93,30.06,5.0,Calm,Calm,-,N/A,,Mostly Cloudy,0,2013-03-25 05:55:00
11:15 PM,42.8,41.0,93,30.06,5.0,Calm,Calm,-,N/A,,Mostly Cloudy,0,2013-03-25 06:15:00
11:35 PM,42.8,41.0,93,30.06,6.0,East,3.5,-,N/A,,Partly Cloudy,80,2013-03-25 06:35:00
11:55 PM,42.8,41.0,93,30.06,7.0,Calm,Calm,-,N/A,,Mostly Cloudy,0,2013-03-25 06:55:00